IRS-P5 (CARTOSAT-1)

Last updated on Sun Jun 21 2026 00:02:51 GMT+0000 (Coordinated Universal Time)

1 28649U 05017A 26171.03106645 .00000963 00000+0 10255-3 0 9997 2 28649 97.5305 193.9666 0002525 76.4954 283.6546 14.91055438144248
UTC large
Height (km)
Speed (km/s)
/
Latitude / Longitude
Inclination (degrees)
Orbital Period (minutes)
Azimuth
Elevation
Range (km)
Doppler Factor

Next 0 passes for location: London (51.5072 / 0.1276)

No passes found over London.
IRS-P5 (CARTOSAT-1)